Date String (YYYY-MM-DD hh:mm:ss) UTC,Instrument flags,Ambient pressure (hPa),Sample flow (lpm),Bypass flow (lpm),Sample temperature (°C),Ambient temperature (°C),ASC tube jacket temperature (°C),LED temperature (°C),Box temperature (°C),Sample RH (%),Span deviation,Mass concentration (μg/m³),Mass concentration (μg/m³),Mass concentration (μg/m³)
DateTimeUTC,F1_M11,P_M11,Q1_M11,Q2_M11,T1_M11,T2_M11,T3_M11,T4_M11,T5_M11,U1_M11,ZSPAN_M11,X2_M11,X0_M11,X1_M11
2021-12-12 06:00:00,,0820.5,5.00,0.00,22.2,21.4,00.0,31.3,23.8,10.1,0000.0,0002.49,0005.04,0002.03
2021-12-12 06:01:00,,0820.4,5.00,0.00,22.2,21.4,00.0,31.3,23.8,10.1,0000.0,0002.35,0003.72,0001.92
2021-12-12 06:02:00,,0820.4,5.00,0.00,22.2,21.4,00.0,31.2,23.8,10.2,0000.0,0002.15,0003.12,0001.76
2021-12-12 06:03:00,,0820.4,5.00,0.00,22.2,21.4,00.0,31.2,23.8,10.2,0000.0,0002.10,0003.04,0001.70
2021-12-12 06:04:00,,0820.5,4.99,0.00,22.2,21.4,00.0,31.2,23.8,10.1,0000.0,0002.09,0003.12,0001.69
2021-12-12 06:05:00,,0820.5,5.00,0.00,22.2,21.4,00.0,31.2,23.8,10.0,0000.0,0001.97,0002.82,0001.64
2021-12-12 06:06:00,,0820.4,5.00,0.00,22.2,21.4,00.0,31.2,23.8,09.8,0000.0,0001.97,0002.77,0001.64
2021-12-12 06:07:00,,0820.3,4.99,0.00,22.2,21.4,00.0,31.2,23.8,09.8,0000.0,0001.99,0002.82,0001.64
2021-12-12 06:08:00,,0820.3,5.01,0.00,22.1,21.4,00.0,31.2,23.8,10.3,0000.0,0001.94,0002.78,0001.57
2021-12-12 06:09:00,,0820.3,5.01,0.00,22.1,21.4,00.0,31.2,23.8,10.4,0000.0,0001.88,0002.71,0001.49
2021-12-12 06:10:00,,0820.3,4.99,0.00,22.1,21.4,00.0,31.2,23.8,10.3,0000.0,0001.83,0002.68,0001.44
2021-12-12 06:11:00,,0820.3,5.00,0.00,22.1,21.4,00.0,31.2,23.8,10.2,0000.0,0001.74,0002.52,0001.40
2021-12-12 06:12:00,,0820.3,4.99,0.00,22.1,21.4,00.0,31.2,23.8,10.1,0000.0,0001.72,0002.49,0001.37
2021-12-12 06:13:00,,0820.2,5.01,0.00,22.1,21.4,00.0,31.2,23.8,10.2,0000.0,0001.72,0002.53,0001.36
2021-12-12 06:14:00,,0820.2,5.00,0.00,22.1,21.4,00.0,31.2,23.8,09.6,0000.0,0001.74,0002.47,0001.39
2021-12-12 06:15:00,,0820.2,5.01,0.00,22.1,21.4,00.0,31.2,23.7,09.6,0000.0,0001.81,0002.65,0001.43
2021-12-12 06:16:00,,0820.0,4.99,0.00,22.1,21.3,00.0,31.2,23.7,09.8,0000.0,0001.88,0003.04,0001.45
2021-12-12 06:17:00,,0820.1,5.00,0.00,22.1,21.5,00.0,31.2,23.7,10.0,0000.0,0001.86,0003.07,0001.43
2021-12-12 06:18:00,,0820.2,4.99,0.00,22.2,22.2,00.0,31.2,24.0,09.7,0000.0,0001.80,0003.85,0001.39
2021-12-12 06:19:00,,0820.3,5.00,0.00,22.3,23.1,00.0,31.2,24.3,09.2,0000.0,0001.87,0004.13,0001.44
2021-12-12 06:20:00,,0820.3,5.00,0.00,22.4,23.1,00.0,31.3,24.5,09.1,0000.0,0002.05,0005.45,0001.57
2021-12-12 06:21:00,,0820.2,4.99,0.00,22.5,22.9,00.0,31.3,24.4,08.5,0000.0,0002.36,0006.25,0001.73
2021-12-12 06:22:00,,0820.3,4.99,0.00,22.5,22.8,00.0,31.3,24.4,07.9,0000.0,0002.86,0007.86,0002.02
2021-12-12 06:23:00,,0820.3,5.00,0.00,22.5,22.6,00.0,31.3,24.4,08.6,0000.0,0003.17,0008.38,0002.25
2021-12-12 06:24:00,,0820.3,5.00,0.00,22.5,22.5,00.0,31.4,24.4,08.3,0000.0,0003.35,0008.78,0002.44
2021-12-12 06:25:00,,0820.3,5.00,0.00,22.5,22.4,00.0,31.4,24.4,08.6,0000.0,0003.51,0009.12,0002.61
2021-12-12 06:26:00,,0820.4,5.00,0.00,22.6,22.3,00.0,31.4,24.4,09.1,0000.0,0003.55,0009.16,0002.66
2021-12-12 06:27:00,,0820.4,5.02,0.00,22.6,22.2,00.0,31.4,24.4,09.2,0000.0,0003.56,0009.15,0002.70
2021-12-12 06:28:00,,0820.3,4.99,0.00,22.6,22.2,00.0,31.4,24.4,09.3,0000.0,0003.56,0009.18,0002.73
2021-12-12 06:29:00,,0820.2,5.01,0.00,22.6,22.1,00.0,31.4,24.4,08.6,0000.0,0003.62,0008.82,0002.81
2021-12-12 06:30:00,,0820.2,5.00,0.00,22.6,22.1,00.0,31.4,24.4,08.0,0000.0,0003.76,0009.50,0002.97
2021-12-12 06:31:00,,0820.2,5.01,0.00,22.6,22.1,00.0,31.5,24.4,08.0,0000.0,0003.90,0009.22,0003.12
2021-12-12 06:32:00,,0820.2,5.00,0.00,22.6,22.1,00.0,31.5,24.3,08.0,0000.0,0003.92,0009.21,0003.18
2021-12-12 06:33:00,,0820.2,5.01,0.00,22.6,22.0,00.0,31.5,24.3,07.9,0000.0,0003.88,0009.16,0003.17
2021-12-12 06:34:00,,0820.2,4.99,0.00,22.6,22.0,00.0,31.5,24.3,08.6,0000.0,0003.85,0008.98,0003.16
2021-12-12 06:35:00,,0820.2,5.00,0.00,22.5,21.9,00.0,31.5,24.3,09.4,0000.0,0003.70,0008.64,0003.04
2021-12-12 06:36:00,,0820.3,5.00,0.00,22.5,21.9,00.0,31.5,24.2,09.5,0000.0,0003.54,0008.33,0002.86
2021-12-12 06:37:00,,0820.4,5.01,0.00,22.5,21.8,00.0,31.5,24.2,09.1,0000.0,0003.49,0008.25,0002.82
2021-12-12 06:38:00,,0820.6,4.99,0.00,22.4,21.8,00.0,31.5,24.1,08.8,0000.0,0003.56,0008.29,0002.86
2021-12-12 06:39:00,,0820.6,5.00,0.00,22.4,21.7,00.0,31.5,24.1,08.3,0000.0,0003.72,0008.58,0003.00
2021-12-12 06:40:00,,0820.6,5.01,0.00,22.4,21.7,00.0,31.5,24.1,08.0,0000.0,0003.83,0008.97,0003.12
2021-12-12 06:41:00,,0820.4,4.99,0.00,22.4,21.7,00.0,31.4,24.1,08.0,0000.0,0003.83,0008.70,0003.11
2021-12-12 06:42:00,,0820.3,5.02,0.00,22.4,21.8,00.0,31.4,24.1,07.9,0000.0,0003.78,0008.62,0003.07
2021-12-12 06:43:00,,0820.3,4.99,0.00,22.4,21.8,00.0,31.4,24.2,07.9,0000.0,0003.76,0008.58,0003.05
2021-12-12 06:44:00,,0820.3,5.01,0.00,22.4,21.8,00.0,31.4,24.1,07.9,0000.0,0003.78,0008.60,0003.01
2021-12-12 06:45:00,,0820.4,5.01,0.00,22.4,21.8,00.0,31.4,24.1,08.0,0000.0,0003.80,0008.80,0003.01
2021-12-12 06:46:00,,0820.3,4.99,0.00,22.4,21.8,00.0,31.4,24.1,08.0,0000.0,0003.95,0009.60,0003.13
2021-12-12 06:47:00,,0820.3,5.00,0.00,22.4,21.8,00.0,31.4,24.1,07.8,0000.0,0004.15,0010.61,0003.23
2021-12-12 06:48:00,,0820.3,5.01,0.00,22.4,21.8,00.0,31.4,24.1,07.7,0000.0,0004.29,0011.11,0003.31
2021-12-12 06:49:00,,0820.5,5.00,0.00,22.4,21.8,00.0,31.4,24.1,07.6,0000.0,0004.38,0011.31,0003.37
2021-12-12 06:50:00,,0820.5,5.00,0.00,22.4,21.8,00.0,31.4,24.1,07.7,0000.0,0004.37,0011.78,0003.39
2021-12-12 06:51:00,,0820.4,5.01,0.00,22.4,21.8,00.0,31.4,24.1,07.8,0000.0,0004.40,0011.90,0003.39
2021-12-12 06:52:00,,0820.2,5.00,0.00,22.4,21.8,00.0,31.4,24.1,08.5,0000.0,0004.37,0011.77,0003.36
2021-12-12 06:53:00,,0820.2,5.00,0.00,22.4,21.8,00.0,31.4,24.1,08.7,0000.0,0004.25,0011.75,0003.28
2021-12-12 06:54:00,,0820.3,4.99,0.00,22.4,21.8,00.0,31.4,24.1,08.6,0000.0,0004.21,0012.69,0003.23
2021-12-12 06:55:00,,0820.3,5.01,0.00,22.4,21.8,00.0,31.4,24.1,08.8,0000.0,0004.06,0012.03,0003.15
2021-12-12 06:56:00,,0820.3,4.98,0.00,22.4,21.7,00.0,31.4,24.1,09.0,0000.0,0003.89,0011.52,0003.01
2021-12-12 06:57:00,,0820.2,5.01,0.00,22.4,21.7,00.0,31.4,24.1,09.1,0000.0,0003.68,0010.62,0002.81
2021-12-12 06:58:00,,0820.2,5.01,0.00,22.4,21.7,00.0,31.4,24.1,09.2,0000.0,0003.47,0009.61,0002.62
2021-12-12 06:59:00,,0820.2,5.00,0.00,22.4,21.7,00.0,31.4,24.1,09.1,0000.0,0003.33,0009.14,0002.44
